,,Stat5,,Stat1,,Stat2,,Stat3,,Stat4,,Wind1,,Wind1,
time,status,PA1M_AVG,status,PR1M_SUM,status,RH1M_AVG,status,SR1M_AVG,status,TA1M_AVG,status,W1dAve1m,status,W1sAve1m,
2001-04-20, 00:00:01,VALID,917.189,VALID,0,VALID,98.3205,VALID,-0.0509425,VALID,20.6396,VALID,91,VALID,0.426604,
2001-04-20, 00:01:00,VALID,917.189,VALID,0,VALID,98.3179,VALID,-0.0509425,VALID,20.6394,VALID,92,VALID,0.513936,
2001-04-20, 00:02:00,VALID,917.158,VALID,0,VALID,98.2683,VALID,-0.0849042,VALID,20.6302,VALID,94,VALID,0.990921,
2001-04-20, 00:03:00,VALID,917.137,VALID,0,VALID,98.1628,VALID,-0.0169808,VALID,20.6237,VALID,92,VALID,0.670272,
2001-04-20, 00:04:00,VALID,917.11,VALID,0,VALID,98.1221,VALID,-0.0679233,VALID,20.6205,VALID,85,VALID,0.381968,
2001-04-20, 00:05:00,VALID,917.094,VALID,0,VALID,98.0458,VALID,-0.0679233,VALID,20.6175,VALID,73,VALID,0.311133,
2001-04-20, 00:06:00,VALID,917.079,VALID,0,VALID,97.9606,VALID,-0.0679233,VALID,20.6016,VALID,52,VALID,0.209604,
2001-04-20, 00:07:00,VALID,917.058,VALID,0,VALID,97.9072,VALID,-0.0509425,VALID,20.5852,VALID,64,VALID,0.0894326,
2001-04-20, 00:08:00,VALID,917.047,VALID,0,VALID,97.869,VALID,0,VALID,20.5774,VALID,76,VALID,0,
2001-04-20, 00:09:00,VALID,917.028,VALID,0,VALID,97.8449,VALID,0,VALID,20.568,VALID,76,VALID,0,
2001-04-20, 00:10:00,VALID,917.007,VALID,0,VALID,97.822,VALID,0.0339617,VALID,20.5707,VALID,76,VALID,0,
2001-04-20, 00:11:00,VALID,916.997,VALID,0,VALID,97.8029,VALID,0.0339617,VALID,20.561,VALID,77,VALID,0.149671,
2001-04-20, 00:12:00,VALID,916.97,VALID,0,VALID,97.7927,VALID,0.0169808,VALID,20.5414,VALID,82,VALID,0.20587,
2001-04-20, 00:13:00,VALID,916.933,VALID,0,VALID,97.7978,VALID,0.0679233,VALID,20.5312,VALID,84,VALID,0.429905,
2001-04-20, 00:14:00,VALID,916.924,VALID,0,VALID,97.761,VALID,0.0509425,VALID,20.5223,VALID,88,VALID,0.461589,
2001-04-20, 00:15:00,VALID,916.897,VALID,0,VALID,97.7864,VALID,0.0339617,VALID,20.4927,VALID,105,VALID,0.414253,
2001-04-20, 00:16:00,VALID,916.893,VALID,0,VALID,97.8373,VALID,0.0509425,VALID,20.4835,VALID,102,VALID,0,
2001-04-20, 00:17:00,VALID,916.885,VALID,0,VALID,97.8843,VALID,0.0679233,VALID,20.4735,VALID,102,VALID,0,
2001-04-20, 00:18:00,VALID,916.871,VALID,0,VALID,97.8958,VALID,0.0509425,VALID,20.4671,VALID,102,VALID,0,
2001-04-20, 00:19:00,VALID,916.88,VALID,0,VALID,97.8818,VALID,0.0509425,VALID,20.4544,VALID,105,VALID,0,
2001-04-20, 00:20:00,VALID,916.884,VALID,0,VALID,97.8512,VALID,0.0339617,VALID,20.4286,VALID,114,VALID,0,
2001-04-20, 00:21:00,VALID,916.878,VALID,0,VALID,97.8716,VALID,0.0339617,VALID,20.4127,VALID,196,VALID,0,
2001-04-20, 00:22:00,VALID,916.858,VALID,0,VALID,97.8589,VALID,0.0339617,VALID,20.3963,VALID,194,VALID,0,
2001-04-20, 00:23:00,VALID,916.848,VALID,0,VALID,97.7788,VALID,-0.0679233,VALID,20.3749,VALID,163,VALID,0,
2001-04-20, 00:24:00,VALID,916.838,VALID,0,VALID,97.7228,VALID,-0.0849042,VALID,20.3396,VALID,160,VALID,0.0671875,
2001-04-20, 00:25:00,VALID,916.824,VALID,0,VALID,97.8029,VALID,-0.0509425,VALID,20.3305,VALID,165,VALID,0.592722,
2001-04-20, 00:26:00,VALID,916.799,VALID,0,VALID,97.8868,VALID,-0.0849042,VALID,20.3173,VALID,165,VALID,0.491343,
2001-04-20, 00:27:00,VALID,916.796,VALID,0,VALID,97.8741,VALID,-0.0339617,VALID,20.3076,VALID,165,VALID,0.395559,
2001-04-20, 00:28:00,VALID,916.79,VALID,0,VALID,98.0661,VALID,-0.0849042,VALID,20.3173,VALID,179,VALID,0.464527,
2001-04-20, 00:29:00,VALID,916.798,VALID,0,VALID,98.1335,VALID,-0.0849042,VALID,20.3307,VALID,188,VALID,0.283984,
2001-04-20, 00:30:00,VALID,916.799,VALID,0,VALID,98.2353,VALID,-0.101885,VALID,20.3302,VALID,188,VALID,0.40625,
2001-04-20, 00:31:00,VALID,916.792,VALID,0,VALID,98.2836,VALID,-0.0679233,VALID,20.3173,VALID,194,VALID,0.457682,
2001-04-20, 00:32:00,VALID,916.779,VALID,0,VALID,98.3357,VALID,-0.0849042,VALID,20.3307,VALID,196,VALID,0.482897,
2001-04-20, 00:33:00,VALID,916.757,VALID,0,VALID,98.3421,VALID,-0.0679233,VALID,20.3108,VALID,194,VALID,0.541174,
2001-04-20, 00:34:00,VALID,916.737,VALID,0,VALID,98.4018,VALID,-0.0679233,VALID,20.2979,VALID,202,VALID,0.662224,
2001-04-20, 00:35:00,VALID,916.722,VALID,0,VALID,98.426,VALID,-0.0339617,VALID,20.2944,VALID,205,VALID,0.17793,
2001-04-20, 00:36:00,VALID,916.71,VALID,0,VALID,98.4196,VALID,-0.0849042,VALID,20.2817,VALID,207,VALID,0.350962,
2001-04-20, 00:37:00,VALID,916.695,VALID,0,VALID,98.4196,VALID,-0.0679233,VALID,20.2693,VALID,208,VALID,0.579359,
2001-04-20, 00:38:00,VALID,916.68,VALID,0,VALID,98.4489,VALID,-0.0509425,VALID,20.2564,VALID,215,VALID,0.57278,
2001-04-20, 00:39:00,VALID,916.674,VALID,0,VALID,98.4718,VALID,-0.0679233,VALID,20.2365,VALID,187,VALID,0.434375,
2001-04-20, 00:40:00,VALID,916.658,VALID,0,VALID,98.468,VALID,-0.0509425,VALID,20.2238,VALID,186,VALID,0.571957,
2001-04-20, 00:41:00,VALID,916.63,VALID,0,VALID,98.4629,VALID,-0.0679233,VALID,20.2074,VALID,186,VALID,0.335732,
2001-04-20, 00:42:00,VALID,916.624,VALID,0,VALID,98.4718,VALID,-0.0849042,VALID,20.1886,VALID,178,VALID,0.367821,
2001-04-20, 00:43:00,VALID,916.617,VALID,0,VALID,98.4769,VALID,-0.0849042,VALID,20.1721,VALID,163,VALID,0.40625,
2001-04-20, 00:44:00,VALID,916.612,VALID,0,VALID,98.468,VALID,-0.0849042,VALID,20.1495,VALID,146,VALID,0.231641,
2001-04-20, 00:45:00,VALID,916.606,VALID,0,VALID,98.4909,VALID,-0.0679233,VALID,20.1329,VALID,146,VALID,0.206936,
2001-04-20, 00:46:00,VALID,916.58,VALID,0,VALID,98.4959,VALID,-0.0679233,VALID,20.114,VALID,123,VALID,0.365709,
2001-04-20, 00:47:00,VALID,916.567,VALID,0,VALID,98.5087,VALID,-0.0509425,VALID,20.0911,VALID,107,VALID,0.644942,
2001-04-20, 00:48:00,VALID,916.548,VALID,0,VALID,98.5392,VALID,-0.0339617,VALID,20.0946,VALID,98,VALID,0.515831,
2001-04-20, 00:49:00,VALID,916.545,VALID,0,VALID,98.5608,VALID,-0.101885,VALID,20.0685,VALID,81,VALID,0.54859,
2001-04-20, 00:50:00,VALID,916.533,VALID,0,VALID,98.6053,VALID,-0.0339617,VALID,20.0814,VALID,74,VALID,0.600123,
2001-04-20, 00:51:00,VALID,916.527,VALID,0,VALID,98.5837,VALID,-0.0509425,VALID,20.0785,VALID,90,VALID,0.247533,
2001-04-20, 00:52:00,VALID,916.524,VALID,0,VALID,98.5481,VALID,-0.0509425,VALID,20.0588,VALID,70,VALID,0.618273,
2001-04-20, 00:53:00,VALID,916.504,VALID,0,VALID,98.5265,VALID,-0.0509425,VALID,20.0787,VALID,92,VALID,0.54603,
2001-04-20, 00:54:00,VALID,916.498,VALID,0,VALID,98.3955,VALID,-0.0509425,VALID,20.0558,VALID,87,VALID,0.382813,
2001-04-20, 00:55:00,VALID,916.502,VALID,0,VALID,98.3713,VALID,-0.0339617,VALID,20.0235,VALID,77,VALID,0.401727,
2001-04-20, 00:56:00,VALID,916.476,VALID,0,VALID,98.4362,VALID,-0.0509425,VALID,20.0427,VALID,68,VALID,0.556588,
2001-04-20, 00:57:00,VALID,916.458,VALID,0,VALID,98.4985,VALID,0,VALID,20.0817,VALID,65,VALID,0.419819,
2001-04-20, 00:58:00,VALID,916.44,VALID,0,VALID,98.5048,VALID,-0.0339617,VALID,20.1078,VALID,93,VALID,0.186867,
2001-04-20, 00:59:00,VALID,916.437,VALID,0,VALID,98.4794,VALID,-0.0169808,VALID,20.1008,VALID,93,VALID,0.184961,
2001-04-20, 01:00:00,VALID,916.414,VALID,0,VALID,98.4311,VALID,-0.0169808,VALID,20.0876,VALID,93,VALID,0,
2001-04-20, 01:01:00,VALID,916.404,VALID,0,VALID,98.3726,VALID,-0.0169808,VALID,20.0752,VALID,93,VALID,0,
2001-04-20, 01:02:00,VALID,916.381,VALID,0,VALID,98.2747,VALID,0,VALID,20.0424,VALID,93,VALID,0.052576,
2001-04-20, 01:03:00,VALID,916.367,VALID,0,VALID,98.2251,VALID,-0.0169808,VALID,20.02,VALID,93,VALID,0.34185,
2001-04-20, 01:04:00,VALID,916.36,VALID,0,VALID,98.1679,VALID,0,VALID,19.981,VALID,93,VALID,0.422564,
2001-04-20, 01:05:00,VALID,916.358,VALID,0,VALID,98.178,VALID,-0.0169808,VALID,19.9554,VALID,93,VALID,0.543555,
2001-04-20, 01:06:00,VALID,916.346,VALID,0,VALID,98.1526,VALID,-0.0169808,VALID,19.91,VALID,93,VALID,0.608373,
2001-04-20, 01:07:00,VALID,916.334,VALID,0,VALID,98.1984,VALID,-0.0169808,VALID,19.8911,VALID,93,VALID,0.599712,
2001-04-20, 01:08:00,VALID,916.334,VALID,0,VALID,98.2696,VALID,-0.0169808,VALID,19.8585,VALID,93,VALID,0.58162,
2001-04-20, 01:09:00,VALID,916.317,VALID,0,VALID,98.3408,VALID,-0.0169808,VALID,19.8486,VALID,102,VALID,0.284961,
2001-04-20, 01:10:00,VALID,916.316,VALID,0,VALID,98.3294,VALID,-0.0169808,VALID,19.8265,VALID,102,VALID,0.200658,
2001-04-20, 01:11:00,VALID,916.297,VALID,0,VALID,98.365,VALID,-0.0169808,VALID,19.8068,VALID,98,VALID,0.568668,
2001-04-20, 01:12:00,VALID,916.277,VALID,0,VALID,98.3294,VALID,-0.0169808,VALID,19.7787,VALID,94,VALID,0.571791,
2001-04-20, 01:13:00,VALID,916.258,VALID,0,VALID,98.4031,VALID,0,VALID,19.775,VALID,90,VALID,0.535807,
2001-04-20, 01:14:00,VALID,916.255,VALID,0,VALID,98.351,VALID,-0.0339617,VALID,19.7492,VALID,89,VALID,0.571615,
2001-04-20, 01:15:00,VALID,916.232,VALID,0,VALID,98.4082,VALID,-0.0169808,VALID,19.7586,VALID,87,VALID,0.597942,
2001-04-20, 01:16:00,VALID,916.221,VALID,0,VALID,98.4247,VALID,0,VALID,19.7713,VALID,89,VALID,0.675253,
2001-04-20, 01:17:00,VALID,916.201,VALID,0,VALID,98.3828,VALID,0,VALID,19.7743,VALID,82,VALID,0.635896,
2001-04-20, 01:18:00,VALID,916.202,VALID,0,VALID,98.4171,VALID,0,VALID,19.7939,VALID,70,VALID,0.5625,
2001-04-20, 01:19:00,VALID,916.165,VALID,0,VALID,98.384,VALID,0,VALID,19.8232,VALID,80,VALID,0.09375,
2001-04-20, 01:20:00,VALID,916.153,VALID,0,VALID,98.351,VALID,-0.0339617,VALID,19.8391,VALID,77,VALID,0.0916941,
2001-04-20, 01:21:00,VALID,916.134,VALID,0,VALID,98.351,VALID,0,VALID,19.8585,VALID,84,VALID,0.213816,
2001-04-20, 01:22:00,VALID,916.108,VALID,0,VALID,98.2518,VALID,0,VALID,19.8583,VALID,84,VALID,0.138455,
2001-04-20, 01:23:00,VALID,916.112,VALID,0,VALID,98.2276,VALID,-0.0169808,VALID,19.865,VALID,71,VALID,0.294341,
2001-04-20, 01:24:00,VALID,916.088,VALID,0,VALID,98.1831,VALID,-0.0169808,VALID,19.8722,VALID,76,VALID,0.0178571,
2001-04-20, 01:25:00,VALID,916.079,VALID,0,VALID,98.0407,VALID,-0.0339617,VALID,19.8391,VALID,76,VALID,0.0612664,
2001-04-20, 01:26:00,VALID,916.074,VALID,0,VALID,98.0077,VALID,-0.0169808,VALID,19.8394,VALID,57,VALID,0.361698,
2001-04-20, 01:27:00,VALID,916.057,VALID,0,VALID,98.0293,VALID,-0.0169808,VALID,19.8424,VALID,57,VALID,0.403166,
2001-04-20, 01:28:00,VALID,916.032,VALID,0,VALID,98,VALID,-0.0339617,VALID,19.8458,VALID,55,VALID,0.0415963,
2001-04-20, 01:29:00,VALID,916.006,VALID,0,VALID,97.9733,VALID,-0.0169808,VALID,19.8456,VALID,58,VALID,0.157617,
2001-04-20, 01:30:00,VALID,915.991,VALID,0,VALID,97.8487,VALID,-0.0339617,VALID,19.8429,VALID,46,VALID,0.220806,
2001-04-20, 01:31:00,VALID,915.998,VALID,0,VALID,97.7546,VALID,-0.0169808,VALID,19.8337,VALID,343,VALID,0.200304,
2001-04-20, 01:32:00,VALID,915.987,VALID,0,VALID,97.9517,VALID,-0.0169808,VALID,19.8655,VALID,326,VALID,0.191723,
2001-04-20, 01:33:00,VALID,916.001,VALID,0,VALID,98.0776,VALID,-0.0169808,VALID,19.8814,VALID,330,VALID,0.109164,
2001-04-20, 01:34:00,VALID,915.985,VALID,0,VALID,98.2225,VALID,0,VALID,19.9236,VALID,330,VALID,0.0078125,
2001-04-20, 01:35:00,VALID,915.991,VALID,0,VALID,98.3077,VALID,-0.0169808,VALID,19.9398,VALID,330,VALID,0.113672,
2001-04-20, 01:36:00,VALID,915.986,VALID,0,VALID,98.3535,VALID,-0.0169808,VALID,19.9234,VALID,329,VALID,0.192909,
2001-04-20, 01:37:00,VALID,915.983,VALID,0,VALID,98.3942,VALID,-0.0169808,VALID,19.9167,VALID,318,VALID,0.238281,
2001-04-20, 01:38:00,VALID,915.997,VALID,0,VALID,98.4654,VALID,0,VALID,19.9336,VALID,312,VALID,0.14412,
2001-04-20, 01:39:00,VALID,915.994,VALID,0,VALID,98.4959,VALID,0,VALID,19.907,VALID,299,VALID,0,
2001-04-20, 01:40:00,VALID,915.994,VALID,0,VALID,98.5176,VALID,-0.0169808,VALID,19.8951,VALID,299,VALID,0,
2001-04-20, 01:41:00,VALID,915.986,VALID,0,VALID,98.5328,VALID,-0.0339617,VALID,19.8876,VALID,299,VALID,0,
2001-04-20, 01:42:00,VALID,915.987,VALID,0,VALID,98.5455,VALID,-0.0169808,VALID,19.8722,VALID,299,VALID,0,
2001-04-20, 01:43:00,VALID,915.965,VALID,0,VALID,98.4909,VALID,-0.0339617,VALID,19.8135,VALID,299,VALID,0,
2001-04-20, 01:44:00,VALID,915.951,VALID,0,VALID,98.3535,VALID,0,VALID,19.7367,VALID,299,VALID,0,
2001-04-20, 01:45:00,VALID,915.925,VALID,0,VALID,98.2785,VALID,0,VALID,19.6488,VALID,299,VALID,0,
2001-04-20, 01:46:00,VALID,915.908,VALID,0,VALID,98.3077,VALID,-0.0339617,VALID,19.6135,VALID,299,VALID,0,
2001-04-20, 01:47:00,VALID,915.891,VALID,0,VALID,98.3548,VALID,-0.0339617,VALID,19.5777,VALID,299,VALID,0,
2001-04-20, 01:48:00,VALID,915.869,VALID,0,VALID,98.4947,VALID,0,VALID,19.5842,VALID,299,VALID,0,
2001-04-20, 01:49:00,VALID,915.843,VALID,0,VALID,98.5099,VALID,0,VALID,19.5745,VALID,299,VALID,0,
2001-04-20, 01:50:00,VALID,915.841,VALID,0,VALID,98.529,VALID,0,VALID,19.5782,VALID,299,VALID,0,
2001-04-20, 01:51:00,VALID,915.831,VALID,0,VALID,98.5888,VALID,0.0169808,VALID,19.5678,VALID,299,VALID,0,
2001-04-20, 01:52:00,VALID,915.814,VALID,0,VALID,98.5608,VALID,0.0169808,VALID,19.5583,VALID,299,VALID,0,
2001-04-20, 01:53:00,VALID,915.809,VALID,0,VALID,98.5379,VALID,0.0169808,VALID,19.5193,VALID,299,VALID,0,
2001-04-20, 01:54:00,VALID,915.798,VALID,0,VALID,98.5061,VALID,-0.0169808,VALID,19.4845,VALID,299,VALID,0,
2001-04-20, 01:55:00,VALID,915.813,VALID,0,VALID,98.5239,VALID,-0.0169808,VALID,19.4619,VALID,299,VALID,0,
2001-04-20, 01:56:00,VALID,915.812,VALID,0,VALID,98.4896,VALID,0,VALID,19.4361,VALID,299,VALID,0,
2001-04-20, 01:57:00,VALID,915.799,VALID,0,VALID,98.4527,VALID,0,VALID,19.4065,VALID,299,VALID,0,
2001-04-20, 01:58:00,VALID,915.81,VALID,0,VALID,98.4565,VALID,-0.0169808,VALID,19.3777,VALID,264,VALID,0,
2001-04-20, 01:59:00,VALID,915.811,VALID,0,VALID,98.4553,VALID,0,VALID,19.3652,VALID,180,VALID,0,
2001-04-20, 02:00:00,VALID,915.798,VALID,0,VALID,98.5468,VALID,-0.0169808,VALID,19.3876,VALID,166,VALID,0,
2001-04-20, 02:01:00,VALID,915.793,VALID,0,VALID,98.557,VALID,0,VALID,19.4013,VALID,145,VALID,0,
2001-04-20, 02:02:00,VALID,915.769,VALID,0,VALID,98.6727,VALID,0,VALID,19.4356,VALID,94,VALID,0,
2001-04-20, 02:03:00,VALID,915.78,VALID,0,VALID,98.6905,VALID,-0.0339617,VALID,19.4788,VALID,92,VALID,0,
2001-04-20, 02:04:00,VALID,915.772,VALID,0,VALID,98.6905,VALID,-0.0509425,VALID,19.4947,VALID,92,VALID,0,
2001-04-20, 02:05:00,VALID,915.768,VALID,0,VALID,98.66,VALID,-0.0339617,VALID,19.5042,VALID,92,VALID,0,
2001-04-20, 02:06:00,VALID,915.759,VALID,0,VALID,98.6142,VALID,-0.0339617,VALID,19.5076,VALID,92,VALID,0,
2001-04-20, 02:07:00,VALID,915.744,VALID,0,VALID,98.59,VALID,-0.0339617,VALID,19.5042,VALID,92,VALID,0,
2001-04-20, 02:08:00,VALID,915.712,VALID,0,VALID,98.59,VALID,0,VALID,19.5007,VALID,92,VALID,0,
2001-04-20, 02:09:00,VALID,915.691,VALID,0,VALID,98.5443,VALID,-0.0339617,VALID,19.5042,VALID,213,VALID,0,
2001-04-20, 02:10:00,VALID,915.653,VALID,0,VALID,98.4883,VALID,0,VALID,19.491,VALID,235,VALID,0,
2001-04-20, 02:11:00,VALID,915.638,VALID,0,VALID,98.4832,VALID,0,VALID,19.4676,VALID,237,VALID,0,
2001-04-20, 02:12:00,VALID,915.6,VALID,0,VALID,98.4642,VALID,0,VALID,19.4552,VALID,228,VALID,0,
2001-04-20, 02:13:00,VALID,915.57,VALID,0,VALID,98.4756,VALID,0,VALID,19.4395,VALID,228,VALID,0,
2001-04-20, 02:14:00,VALID,915.555,VALID,0,VALID,98.4578,VALID,-0.0339617,VALID,19.4197,VALID,205,VALID,0,
2001-04-20, 02:15:00,VALID,915.537,VALID,0,VALID,98.3383,VALID,0,VALID,19.3655,VALID,188,VALID,0,
2001-04-20, 02:16:00,VALID,915.521,VALID,0,VALID,98.276,VALID,-0.0339617,VALID,19.3106,VALID,188,VALID,0,
2001-04-20, 02:17:00,VALID,915.51,VALID,0,VALID,98.2671,VALID,-0.0169808,VALID,19.2843,VALID,187,VALID,0,
2001-04-20, 02:18:00,VALID,915.501,VALID,0,VALID,98.2671,VALID,-0.0339617,VALID,19.2485,VALID,187,VALID,0,
2001-04-20, 02:19:00,VALID,915.494,VALID,0,VALID,98.2798,VALID,-0.0169808,VALID,19.236,VALID,187,VALID,0,
2001-04-20, 02:20:00,VALID,915.501,VALID,0,VALID,98.3688,VALID,-0.0339617,VALID,19.2298,VALID,184,VALID,0,
2001-04-20, 02:21:00,VALID,915.504,VALID,0,VALID,98.3484,VALID,0,VALID,19.207,VALID,183,VALID,0,
2001-04-20, 02:22:00,VALID,915.517,VALID,0,VALID,98.2518,VALID,-0.0169808,VALID,19.1548,VALID,170,VALID,0,
2001-04-20, 02:23:00,VALID,915.514,VALID,0,VALID,98.159,VALID,-0.0169808,VALID,19.0976,VALID,147,VALID,0,
2001-04-20, 02:24:00,VALID,915.505,VALID,0,VALID,98.2861,VALID,-0.0339617,VALID,19.0879,VALID,146,VALID,0,
2001-04-20, 02:25:00,VALID,915.488,VALID,0,VALID,98.4921,VALID,0,VALID,19.1101,VALID,145,VALID,0.476563,
2001-04-20, 02:26:00,VALID,915.453,VALID,0,VALID,98.5188,VALID,-0.0169808,VALID,19.1198,VALID,145,VALID,0.565034,
2001-04-20, 02:27:00,VALID,915.425,VALID,0,VALID,98.4603,VALID,-0.0339617,VALID,19.0716,VALID,144,VALID,0.561061,
2001-04-20, 02:28:00,VALID,915.401,VALID,0,VALID,98.4222,VALID,-0.0339617,VALID,19.0321,VALID,144,VALID,0.331926,
2001-04-20, 02:29:00,VALID,915.377,VALID,0,VALID,98.3383,VALID,0,VALID,18.9809,VALID,144,VALID,0,
2001-04-20, 02:30:00,VALID,915.356,VALID,0,VALID,98.3815,VALID,-0.0339617,VALID,18.952,VALID,144,VALID,0,
2001-04-20, 02:31:00,VALID,915.358,VALID,0,VALID,98.4629,VALID,-0.0169808,VALID,18.958,VALID,144,VALID,0,
2001-04-20, 02:32:00,VALID,915.346,VALID,0,VALID,98.59,VALID,-0.0169808,VALID,18.9811,VALID,144,VALID,0,
2001-04-20, 02:33:00,VALID,915.347,VALID,0,VALID,98.6524,VALID,-0.0509425,VALID,18.9965,VALID,144,VALID,0,
2001-04-20, 02:34:00,VALID,915.326,VALID,0,VALID,98.7719,VALID,-0.0169808,VALID,19.0358,VALID,144,VALID,0,
2001-04-20, 02:35:00,VALID,915.317,VALID,0,VALID,98.777,VALID,-0.0849042,VALID,19.0653,VALID,144,VALID,0,
2001-04-20, 02:36:00,VALID,915.312,VALID,0,VALID,98.8278,VALID,-0.0509425,VALID,19.0974,VALID,144,VALID,0,
2001-04-20, 02:37:00,VALID,915.285,VALID,0,VALID,98.6778,VALID,-0.0339617,VALID,19.0584,VALID,144,VALID,0,
2001-04-20, 02:38:00,VALID,915.286,VALID,0,VALID,98.5481,VALID,-0.0509425,VALID,18.9908,VALID,144,VALID,0,
2001-04-20, 02:39:00,VALID,915.275,VALID,0,VALID,98.5163,VALID,-0.0679233,VALID,18.9652,VALID,144,VALID,0,
2001-04-20, 02:40:00,VALID,915.283,VALID,0,VALID,98.4883,VALID,-0.0849042,VALID,18.9491,VALID,133,VALID,0,
2001-04-20, 02:41:00,VALID,915.286,VALID,0,VALID,98.5392,VALID,-0.101885,VALID,18.9592,VALID,117,VALID,0,
2001-04-20, 02:42:00,VALID,915.289,VALID,0,VALID,98.515,VALID,-0.0849042,VALID,18.9361,VALID,102,VALID,0,
2001-04-20, 02:43:00,VALID,915.303,VALID,0,VALID,98.4667,VALID,-0.0679233,VALID,18.9006,VALID,100,VALID,0,
2001-04-20, 02:44:00,VALID,915.299,VALID,0,VALID,98.5621,VALID,-0.0509425,VALID,18.9172,VALID,96,VALID,0,
2001-04-20, 02:45:00,VALID,915.295,VALID,0,VALID,98.5926,VALID,-0.0849042,VALID,18.9235,VALID,96,VALID,0,
2001-04-20, 02:46:00,VALID,915.286,VALID,0,VALID,98.5443,VALID,-0.0509425,VALID,18.8845,VALID,97,VALID,0,
2001-04-20, 02:47:00,VALID,915.279,VALID,0,VALID,98.6028,VALID,-0.0849042,VALID,18.8946,VALID,98,VALID,0,
2001-04-20, 02:48:00,VALID,915.279,VALID,0,VALID,98.8113,VALID,-0.101885,VALID,18.9754,VALID,98,VALID,0,
2001-04-20, 02:49:00,VALID,915.286,VALID,0,VALID,98.8978,VALID,-0.101885,VALID,19.0459,VALID,98,VALID,0,
2001-04-20, 02:50:00,VALID,915.282,VALID,0,VALID,98.9512,VALID,-0.0849042,VALID,19.0946,VALID,98,VALID,0,
2001-04-20, 02:51:00,VALID,915.286,VALID,0,VALID,98.9982,VALID,-0.101885,VALID,19.1466,VALID,113,VALID,0,
2001-04-20, 02:52:00,VALID,915.282,VALID,0,VALID,99.0338,VALID,-0.0679233,VALID,19.1883,VALID,166,VALID,0,
2001-04-20, 02:53:00,VALID,915.274,VALID,0,VALID,98.9753,VALID,-0.0849042,VALID,19.195,VALID,185,VALID,0,
2001-04-20, 02:54:00,VALID,915.272,VALID,0,VALID,98.9703,VALID,-0.0679233,VALID,19.1848,VALID,200,VALID,0,
2001-04-20, 02:55:00,VALID,915.266,VALID,0,VALID,98.9995,VALID,-0.0849042,VALID,19.2079,VALID,204,VALID,0,
2001-04-20, 02:56:00,VALID,915.241,VALID,0,VALID,98.9893,VALID,-0.0679233,VALID,19.1948,VALID,206,VALID,0,
2001-04-20, 02:57:00,VALID,915.224,VALID,0,VALID,98.9194,VALID,-0.101885,VALID,19.1886,VALID,205,VALID,0,
2001-04-20, 02:58:00,VALID,915.2,VALID,0,VALID,98.8901,VALID,-0.101885,VALID,19.1697,VALID,205,VALID,0,
2001-04-20, 02:59:00,VALID,915.183,VALID,0,VALID,98.7566,VALID,-0.101885,VALID,19.0879,VALID,204,VALID,0,
2001-04-20, 03:00:00,VALID,915.177,VALID,0,VALID,98.6295,VALID,-0.0679233,VALID,19.0012,VALID,203,VALID,0,
2001-04-20, 03:01:00,VALID,915.172,VALID,0,VALID,98.59,VALID,-0.0679233,VALID,18.9592,VALID,200,VALID,0,
2001-04-20, 03:02:00,VALID,915.154,VALID,0,VALID,98.571,VALID,-0.0849042,VALID,18.9299,VALID,200,VALID,0,
2001-04-20, 03:03:00,VALID,915.147,VALID,0,VALID,98.5913,VALID,-0.0679233,VALID,18.9205,VALID,200,VALID,0,
2001-04-20, 03:04:00,VALID,915.15,VALID,0,VALID,98.8075,VALID,-0.0679233,VALID,18.9756,VALID,186,VALID,0,
2001-04-20, 03:05:00,VALID,915.134,VALID,0,VALID,98.9525,VALID,-0.0679233,VALID,19.0698,VALID,177,VALID,0,
2001-04-20, 03:06:00,VALID,915.131,VALID,0,VALID,98.9728,VALID,-0.0849042,VALID,19.1168,VALID,177,VALID,0,
2001-04-20, 03:07:00,VALID,915.117,VALID,0,VALID,98.9792,VALID,-0.0849042,VALID,19.1493,VALID,177,VALID,0,
2001-04-20, 03:08:00,VALID,915.111,VALID,0,VALID,98.9753,VALID,0.0169808,VALID,19.2035,VALID,177,VALID,0,
2001-04-20, 03:09:00,VALID,915.108,VALID,0,VALID,98.9766,VALID,0.0339617,VALID,19.2157,VALID,177,VALID,0,
2001-04-20, 03:10:00,VALID,915.094,VALID,0,VALID,98.955,VALID,0.0849042,VALID,19.245,VALID,177,VALID,0,
2001-04-20, 03:11:00,VALID,915.094,VALID,0,VALID,98.9474,VALID,0.0509425,VALID,19.251,VALID,177,VALID,0,
2001-04-20, 03:12:00,VALID,915.093,VALID,0,VALID,98.9525,VALID,0.0679233,VALID,19.2999,VALID,177,VALID,0,
2001-04-20, 03:13:00,VALID,915.086,VALID,0,VALID,98.9308,VALID,0.0849042,VALID,19.3096,VALID,177,VALID,0,
2001-04-20, 03:14:00,VALID,915.076,VALID,0,VALID,98.941,VALID,0.0679233,VALID,19.3258,VALID,179,VALID,0,
2001-04-20, 03:15:00,VALID,915.069,VALID,0,VALID,98.9436,VALID,0.0169808,VALID,19.3479,VALID,181,VALID,0,
2001-04-20, 03:16:00,VALID,915.064,VALID,0,VALID,98.8838,VALID,0.0169808,VALID,19.3161,VALID,181,VALID,0,
2001-04-20, 03:17:00,VALID,915.067,VALID,0,VALID,98.8278,VALID,0.0169808,VALID,19.2932,VALID,181,VALID,0,
2001-04-20, 03:18:00,VALID,915.066,VALID,0,VALID,98.7757,VALID,0.0509425,VALID,19.2641,VALID,181,VALID,0,
2001-04-20, 03:19:00,VALID,915.073,VALID,0,VALID,98.6689,VALID,0.0849042,VALID,19.2264,VALID,197,VALID,0,
2001-04-20, 03:20:00,VALID,915.063,VALID,0,VALID,98.693,VALID,0.0509425,VALID,19.2318,VALID,270,VALID,0,
2001-04-20, 03:21:00,VALID,915.061,VALID,0,VALID,98.8227,VALID,0.0679233,VALID,19.3096,VALID,270,VALID,0,
2001-04-20, 03:22:00,VALID,915.062,VALID,0,VALID,98.8571,VALID,0.0339617,VALID,19.3645,VALID,270,VALID,0,
2001-04-20, 03:23:00,VALID,915.056,VALID,0,VALID,98.9016,VALID,-0.0509425,VALID,19.44,VALID,270,VALID,0,
2001-04-20, 03:24:00,VALID,915.027,VALID,0,VALID,98.9118,VALID,-0.0679233,VALID,19.4756,VALID,270,VALID,0,
2001-04-20, 03:25:00,VALID,915.02,VALID,0,VALID,98.9041,VALID,-0.0339617,VALID,19.4952,VALID,291,VALID,0,
2001-04-20, 03:26:00,VALID,915.013,VALID,0,VALID,98.8749,VALID,-0.0679233,VALID,19.4952,VALID,311,VALID,0,
2001-04-20, 03:27:00,VALID,915.01,VALID,0,VALID,98.913,VALID,-0.0339617,VALID,19.5529,VALID,2,VALID,0,
2001-04-20, 03:28:00,VALID,914.999,VALID,0,VALID,98.6651,VALID,-0.0849042,VALID,19.4502,VALID,6,VALID,0,
2001-04-20, 03:29:00,VALID,915.005,VALID,0,VALID,98.5239,VALID,-0.0509425,VALID,19.369,VALID,6,VALID,0,
2001-04-20, 03:30:00,VALID,915.026,VALID,0,VALID,98.5379,VALID,-0.0169808,VALID,19.3369,VALID,6,VALID,0,
2001-04-20, 03:31:00,VALID,915.038,VALID,0,VALID,98.5697,VALID,-0.0679233,VALID,19.3297,VALID,6,VALID,0,
2001-04-20, 03:32:00,VALID,915.049,VALID,0,VALID,98.6167,VALID,-0.0509425,VALID,19.3533,VALID,3,VALID,0,
2001-04-20, 03:33:00,VALID,915.055,VALID,0,VALID,98.6358,VALID,-0.0339617,VALID,19.3466,VALID,326,VALID,0,
2001-04-20, 03:34:00,VALID,915.054,VALID,0,VALID,98.6778,VALID,-0.0849042,VALID,19.3598,VALID,326,VALID,0,
2001-04-20, 03:35:00,VALID,915.046,VALID,0,VALID,98.6854,VALID,-0.0169808,VALID,19.3759,VALID,326,VALID,0,
2001-04-20, 03:36:00,VALID,915.042,VALID,0,VALID,98.7096,VALID,-0.0169808,VALID,19.3821,VALID,326,VALID,0,
2001-04-20, 03:37:00,VALID,915.034,VALID,0,VALID,98.6791,VALID,-0.0509425,VALID,19.3754,VALID,326,VALID,0,
2001-04-20, 03:38:00,VALID,915.045,VALID,0,VALID,98.6435,VALID,-0.0339617,VALID,19.3464,VALID,326,VALID,0,